#timestamp,LO_Frequency,Hit 
1503968415.5,286046998.2,N
1503968435.3,286047001.9,N
1503968455.2,286047003.6,N
1503968475.9,286047003.5,N
1503968495.7,286047001.9,N
1503968515.6,286047002.0,N
1503968535.4,286047001.4,N
1503968555.2,286047005.2,N
1503968575.1,286047004.6,N
1503968576.0,286047004.6,N
1503968595.8,286047007.1,N
1503968615.6,286047006.8,N
1503968635.4,286047005.6,N
1503968655.3,286047003.2,N
1503968675.1,286047001.5,N
1503968695.8,286047001.6,N
1503968715.7,286047002.4,N
1503968735.5,286047002.0,N
1503968755.3,286047004.4,N
1503968775.2,286047003.1,N
1503968795.9,286047007.6,N
1503968815.7,286047005.4,N
1503968835.6,286047005.4,N
1503968855.4,286047002.9,N
1503968875.2,286047004.2,N
1503968895.0,286047003.5,N
1503968896.0,286047003.5,N
1503968915.8,286047002.1,N
1503968935.6,286047002.2,N
1503968955.4,286047001.6,N
1503968975.3,286047004.4,N
1503968995.1,286047003.7,N
1503969015.9,286047006.7,P
1503969035.7,286047006.8,P
1503969055.5,286047009.0,P
1503969075.4,286047008.2,P
1503969095.2,286047004.2,P
1503969115.0,286046999.7,N
1503969115.9,286046999.7,N
1503969135.8,286047002.4,N
1503969155.6,286046999.9,N
1503969175.4,286047005.5,N
1503969195.3,286047003.0,N
1503969215.1,286047005.7,N
1503969216.0,286047005.7,N
1503969235.8,286047007.0,N
1503969255.6,286047005.4,N
1503969275.5,286047005.7,N
1503969295.3,286047004.7,N
1503969315.1,286047007.4,N
1503969335.9,286047006.7,N
1503969355.7,286047006.8,N
1503969375.5,286047008.4,P
1503969395.4,286047002.6,N
1503969415.2,286047000.1,N
1503969435.0,286047001.1,N
1503969435.9,286047001.1,N
1503969455.8,286046998.7,N
1503969475.6,286046997.7,N
1503969495.4,286046999.6,N
1503969515.3,286047004.0,N
1503969535.1,286046998.5,N
1503969536.0,286046998.5,N
1503969555.8,286047000.8,N
1503969575.7,286047000.4,N
1503969595.5,286046998.2,N
1503969615.3,286046997.5,N
1503969635.1,286046994.0,N
1503969655.9,286046994.4,N
1503969675.7,286046997.1,N
1503969695.5,286046997.1,N
1503969715.4,286046999.3,N
1503969735.2,286046997.2,N
1503969755.0,286047001.4,N
1503969755.9,286047001.4,N
1503969775.8,286047003.7,N
1503969795.6,286047002.1,N
1503969815.4,286047000.9,N
1503969835.3,286046998.4,N
1503969855.1,286047002.3,N
1503969856.0,286047002.3,N
1503969875.8,286047004.3,N
1503969895.7,286047001.2,N
1503969915.5,286046997.7,N
1503969935.3,286046995.4,N
1503969955.2,286046996.2,N
1503969975.9,286046993.9,N
1503969995.7,286046994.3,N
1503970015.5,286046991.9,N
1503970035.4,286046993.2,N
1503970055.2,286046993.2,N
1503970075.0,286046989.6,P
1503970076.0,286046989.6,N
1503970095.8,286046993.1,N
1503970115.6,286046990.2,N
1503970135.4,286046992.8,N
1503970155.3,286046993.2,N
1503970175.1,286046991.2,P
1503970195.9,286046999.1,N
1503970215.7,286046995.1,N
1503970235.5,286046996.0,N
1503970255.3,286046993.4,N
1503970275.2,286046991.8,P
1503970295.0,286047000.9,N
1503970295.9,286047000.9,N
1503970315.8,286047000.7,N
1503970335.6,286047001.1,N
1503970355.4,286046994.9,N
1503970375.2,286046994.1,N
1503970395.1,286046991.5,N
1503970396.0,286046991.5,N
1503970415.8,286046993.2,N
1503970435.6,286046994.2,N
1503970455.5,286046992.1,N
1503970475.3,286046994.7,N
1503970495.1,286046993.5,N
1503970515.9,286046994.5,N
1503970535.7,286046995.4,N
1503970555.5,286046997.3,N
1503970575.4,286046998.8,N
1503970595.2,286047000.5,N
1503970615.0,286047001.2,N
1503970615.9,286047001.2,N
1503970635.8,286047002.1,N
1503970655.6,286047002.2,N
1503970675.4,286047005.0,N
1503970695.2,286047008.3,N
1503970715.1,286047008.6,N
1503970716.0,286047008.6,N
1503970735.8,286047008.8,N
1503970755.6,286047010.7,N
1503970775.5,286047007.2,N
1503970795.3,286047006.2,N
1503970815.1,286047009.0,N
1503970835.9,286047010.3,N
1503970855.7,286047008.3,N
1503970875.5,286047012.6,N
1503970895.4,286047012.0,N
1503970915.2,286047012.5,N
1503970935.0,286047008.0,N
1503970935.9,286047008.0,N
1503970955.8,286047008.4,N
1503970975.6,286047009.7,N
1503970995.4,286047012.1,N
1503971015.2,286047014.0,N
1503971035.1,286047014.6,N
1503971036.0,286047014.6,N
1503971055.8,286047016.0,P
1503971075.7,286047006.6,N
1503971095.5,286047007.1,N
1503971115.3,286047005.2,N
1503971135.1,286047001.7,N
1503971155.9,286047001.9,N
1503971175.7,286047006.0,N
1503971195.5,286047007.6,N
1503971215.4,286047006.1,N
1503971235.2,286047007.1,N
1503971255.0,286047007.0,N
1503971255.9,286047007.0,N
1503971275.8,286047008.8,N
1503971295.6,286047011.5,P
1503971315.4,286047003.7,N
1503971335.3,286047003.4,N
1503971355.1,286047000.2,N
1503971375.8,286047000.5,N
1503971395.7,286047002.2,N
1503971415.5,286047002.1,N
1503971435.3,286047004.4,N
1503971455.2,286047005.6,N
1503971475.9,286047006.0,N
1503971495.7,286047007.6,N
1503971515.5,286047006.5,N
1503971535.4,286047007.0,N
1503971555.2,286047005.4,N
1503971575.0,286047001.5,N
1503971575.9,286047001.5,N
1503971595.8,286046999.7,N
1503971615.6,286047001.6,N
1503971635.4,286046999.7,N
1503971655.3,286047004.0,N
1503971675.1,286047001.0,N
1503971676.0,286047001.0,N
1503971695.8,286047001.2,N
1503971715.7,286047004.4,N
1503971735.5,286047001.8,N
1503971755.3,286047003.6,N
1503971775.2,286047003.3,N
1503971795.9,286047007.2,N
1503971815.7,286047007.5,N
1503971835.6,286047005.6,N
1503971855.4,286047003.1,N
1503971875.2,286047009.2,P
1503971895.1,286047006.4,N
1503971896.0,286047006.4,N
1503971915.8,286047010.2,P
1503971935.6,286047006.0,P
1503971955.5,286047002.3,N
1503971975.3,286046993.7,N
1503971995.1,286046991.9,N
